Regional Weather Roundup
Issued by NWS Glasgow, MT

Home | Current Version | Previous Version | Text Only | Print | Product List | Glossary On
Versions: 1 2 3 4 5 6 7 8 9 10 11 12 13 14 15 16 17 18 19 20 21 22 23 24 25 26 27
000
ASUS45 KGGW 141015
RWRGGW
HOURLY REGIONAL WEATHER ROUNDUP FOR NORTHEAST MONTANA
NATIONAL WEATHER SERVICE GLASGOW MONTANA
300 AM MST THU DEC 14 2017

NOTE: "FAIR" INDICATES FEW OR NO CLOUDS BELOW 12,000 FEET WITH NO
SIGNIFICANT WEATHER AND/OR OBSTRUCTIONS TO VISISBILITY.

NORTHEAST MONTANA


CITY           SKY/WX    TMP DP  RH WIND       PRES   REMARKS
GLASGOW        CLOUDY    33  25  72 NW17      30.21R
PLENTYWOOD       N/A     32  28  85 N16G28      N/A
WOLF POINT     CLOUDY    35  27  72 W14       30.18R
JORDAN           N/A     33  24  69 NW15      30.23R
WINNETT          N/A     34  22  61 W18G26      N/A
SIDNEY         CLOUDY    34  28  79 NW20      30.10R
GLENDIVE       CLOUDY    32  27  81 NW20G29   30.14R
MALTA            N/A     31  27  85 W9          N/A
SCOBEY           N/A     32  25  76 NW16G23   30.10R

FORT PECK REPORTS


CITY           SKY/WX    TMP DP  RH WIND       PRES   REMARKS
FORT PECK        N/A     34  27  75 W18G26      N/A

SOUTHEAST MONTANA


CITY           SKY/WX    TMP DP  RH WIND       PRES   REMARKS
BILLINGS       CLEAR     31  22  69 NW6       30.30R
MILES CITY     CLOUDY    35  26  69 NW18G26   30.20R
BAKER          CLOUDY    32  29  88 NW17G33   30.10R
LIVINGSTON     CLOUDY    24  21  88 NW8       30.38R

CENTRAL MONTANA


CITY           SKY/WX    TMP DP  RH WIND       PRES   REMARKS
HAVRE          CLEAR     27  23  85 SW13      30.34R
LEWISTOWN      PTCLDY    26  21  81 W13       30.32S
GREAT FALLS    CLOUDY    24  19  81 SW9       30.39S
CUT BANK       CLEAR     24  20  84 W13       30.36S
HELENA         CLOUDY    14  12  92 CALM      30.44F FOG
BUTTE          CLOUDY    22  19  89 CALM      30.43R
BOZEMAN        FOG       27  25  92 NW5       30.44R VSB 1/4

WESTERN MONTANA


CITY           SKY/WX    TMP DP  RH WIND       PRES   REMARKS
MISSOULA       CLOUDY    26  24  92 S5        30.52S
KALISPELL      NOT AVBL

NORTH DAKOTA


CITY           SKY/WX    TMP DP  RH WIND       PRES   REMARKS
WILLISTON      CLOUDY    34  27  75 N22G33    30.06R
DICKINSON      CLOUDY    32  29  88 NW17      30.00R
MINOT          CLOUDY    33  28  81 NW15      29.97R
BISMARCK       CLOUDY    28  26  92 W5        29.98S

SOUTHERN SASKATCHEWAN


CITY           SKY/WX    TMP DP  RH WIND       PRES   REMARKS
REGINA         MOCLDY    28  25  86 NW14      30.12R
MOOSE JAW      CLOUDY    32  27  80 NW17      30.16
ESTEVAN        FLURRIES  30  27  86 NW16G22   30.04R
SWIFT CURRENT  CLOUDY    30  27  86 NW14      30.20R





USA.gov is the U.S. government's official web portal to all federal, state and local government web resources and services.